Hourly Data Report for July 01, 2011

HALIFAX STANFIELD INT'L A
NOVA SCOTIA

44°52'48.060" N
63°30'00.050" W
145.40 m
8202250
71395
YHZ

Download Data

Hourly Data (July 2011)
Hourly Data Report for July 1, 2011
TIME
LST
Temp Definition
°C
Dew Point Definition
°C
Rel Hum Definition
%
Precip. Amount Definition
mm

Wind Dir Definition
10's deg

Wind Spd Definition
km/h
Visibility Definition
km
Stn Press Definition
kPa
Hmdx Definition


Wind Chill Definition


Weather Definition


00:00 11.7 11.2 97   18 7 0.8 99.23     Fog
01:00 11.6 11.0 96   19 11 0.6 99.23     Fog
02:00 11.5 11.0 97   14 7 0.8 99.25     Fog
03:00 11.7 11.2 97   16 7 1.0 99.26     Fog
04:00 12.4 11.8 96   20 11 0.4 99.29     Fog
05:00 12.5 12.0 97   20 9 0.4 99.33     Fog
06:00 13.6 13.0 96   22 13 24.1 99.37     Mostly Cloudy
07:00 15.9 14.8 93   22 9 24.1 99.42     Mainly Clear
08:00 19.2 14.7 75   25 17 24.1 99.47     Clear
09:00 21.0 14.3 66   29 17 24.1 99.46 25   Mainly Clear
10:00 22.3 14.3 61   26 17 24.1 99.48 26   Mainly Clear
11:00 21.5 14.1 63   29 13 24.1 99.50 25   Mostly Cloudy
12:00 22.3 15.0 63   28 9 24.1 99.50 26   Mostly Cloudy
13:00 21.7 15.0 66   34 15 24.1 99.49 26   Mostly Cloudy
14:00 23.5 14.8 58   25 9 24.1 99.51 27   Mostly Cloudy
15:00 23.6 15.3 60   24 9 24.1 99.52 28   Mostly Cloudy
16:00 22.5 14.8 62   25 11 24.1 99.58 26   Mostly Cloudy
17:00 22.8 15.0 61   23 13 24.1 99.64 27   Mostly Cloudy
18:00 21.9 14.2 62   22 15 24.1 99.67 25   Mainly Clear
19:00 20.8 14.2 66   25 7 24.1 99.73     Mainly Clear
20:00 18.5 14.3 77   30 7 24.1 99.76     Mainly Clear
21:00 18.5 13.2 71   34 9 24.1 99.84     Mostly Cloudy
22:00 16.4 13.2 81   34 15 24.1 99.86     Mainly Clear
23:00 15.6 13.1 85   34 13 24.1 99.88     Mostly Cloudy

Notes on Data Quality.

Legend

  • E = Estimated
  • M = Missing
  • NA = Not Available*
  • [empty] = Indicates an unobserved value
Date modified: